EI4HQ Weather Reports


Display with metric or nautical units.
time (UTC)temp
F
wind
direction
speed
MPH
gust
MPH
rain 1hr
in
rain 24hr
in
rain mn
in
humidity
%
barometer
mb
20190117084042 43 331 4.0 8.0 0.00 0.02 0.00 86 1017.7
20190117083142 43 337 5.0 8.0 0.00 0.02 0.00 86 1017.5
20190117082242 43 325 3.0 6.0 0.00 0.02 0.00 86 1017.3
20190117081342 43 327 2.0 3.0 0.00 0.02 0.00 86 1017.3
20190117080442 43 333 4.0 9.0 0.00 0.02 0.00 86 1017.0
20190117075542 43 295 2.0 4.0 0.00 0.02 0.00 86 1017.1
20190117074642 43 306 2.0 5.0 0.00 0.02 0.00 86 1017.1
20190117073742 43 329 4.0 11.0 0.00 0.02 0.00 86 1016.7
20190117072842 43 335 7.0 11.0 0.00 0.02 0.00 86 1016.6
20190117071942 43 326 3.0 9.0 0.00 0.02 0.00 86 1016.6
20190117071042 43 323 3.0 10.0 0.00 0.02 0.00 86 1016.6
20190117070142 43 310 2.0 8.0 0.00 0.02 0.00 86 1016.4
20190117065242 43 318 2.0 6.0 0.00 0.02 0.00 86 1016.3
20190117064342 43 331 6.0 14.0 0.00 0.02 0.00 86 1015.8
20190117063442 43 336 11.0 16.0 0.00 0.02 0.00 86 1015.6
20190117062542 43 334 7.0 15.0 0.00 0.02 0.00 86 1015.7
20190117061642 43 305 3.0 5.0 0.00 0.02 0.00 86 1015.9
20190117060742 43 288 2.0 7.0 0.00 0.02 0.00 86 1015.8
20190117055842 43 323 2.0 9.0 0.00 0.02 0.00 86 1015.5
20190117054942 43 329 3.0 8.0 0.00 0.02 0.00 86 1015.3
20190117054042 43 335 7.0 18.0 0.00 0.02 0.00 86 1014.8
20190117053142 43 336 7.0 15.0 0.00 0.02 0.00 86 1014.7
20190117052242 43 337 10.0 15.0 0.00 0.02 0.00 86 1014.4
20190117051342 43 343 9.0 15.0 0.00 0.02 0.00 86 1014.3
20190117050442 43 347 10.0 15.0 0.00 0.02 0.00 86 1014.2
20190117045542 43 348 11.0 15.0 0.00 0.02 0.00 86 1013.9
20190117044642 43 348 10.0 14.0 0.00 0.02 0.00 86 1013.8
20190117043742 43 355 8.0 12.0 0.00 0.02 0.00 86 1013.5
20190117042842 43 354 8.0 13.0 0.00 0.02 0.00 86 1013.3
20190117041942 43 358 10.0 17.0 0.00 0.02 0.00 86 1013.0
20190117041042 43 353 13.0 21.0 0.00 0.02 0.00 86 1012.8
20190117040142 43 350 14.0 20.0 0.00 0.02 0.00 86 1012.6
20190117035242 43 352 15.0 25.0 0.00 0.02 0.00 86 1012.3
20190117034342 43 354 16.0 27.0 0.00 0.02 0.00 86 1012.1
20190117033442 43 353 16.0 26.0 0.00 0.02 0.00 86 1011.9
20190117032542 43 349 16.0 26.0 0.00 0.02 0.00 86 1011.8
20190117031642 43 346 18.0 28.0 0.00 0.02 0.00 86 1011.5
20190117030742 43 342 17.0 26.0 0.00 0.02 0.00 86 1011.2
20190117025842 43 340 18.0 30.0 0.00 0.02 0.00 86 1010.9
20190117024941 43 341 19.0 27.0 0.00 0.02 0.00 86 1010.7
20190117024042 43 338 18.0 34.0 0.00 0.02 0.00 86 1010.1
20190117023141 43 339 15.0 26.0 0.00 0.02 0.00 86 1010.1
20190117022242 43 336 15.0 29.0 0.00 0.02 0.00 86 1010.0
20190117021341 43 334 15.0 32.0 0.00 0.02 0.00 86 1009.9
20190117020442 43 332 14.0 25.0 0.00 0.02 0.00 86 1009.7
20190117015541 43 328 11.0 23.0 0.00 0.02 0.00 86 1009.6
20190117014642 43 326 8.0 20.0 0.00 0.02 0.00 86 1009.4
20190117013741 43 323 8.0 21.0 0.00 0.02 0.00 86 1009.3
20190117012842 43 320 7.0 16.0 0.00 0.02 0.00 86 1009.1
20190117011941 43 315 6.0 14.0 0.00 0.02 0.00 86 1008.9
20190117011042 43 313 6.0 13.0 0.00 0.02 0.00 86 1008.7
20190117010142 43 308 6.0 12.0 0.00 0.02 0.00 86 1008.6
20190117005242 43 306 6.0 14.0 0.00 0.02 0.00 86 1008.4
20190117004341 43 305 5.0 13.0 0.00 0.02 0.00 86 1008.4
20190117003442 43 303 6.0 11.0 0.00 0.02 0.00 86 1008.3
20190117002541 43 300 6.0 18.0 0.00 0.02 0.00 86 1008.2
20190117001642 43 298 6.0 14.0 0.00 0.02 0.00 86 1008.2
20190117000741 43 301 5.0 15.0 0.00 0.02 0.00 86 1008.1
20190116235842 43 306 5.0 15.0 0.00 0.02 0.02 86 1008.0
20190116234941 43 305 6.0 14.0 0.00 0.02 0.02 86 1007.9
20190116234042 43 308 5.0 14.0 0.00 0.02 0.02 86 1007.8
20190116233141 43 306 5.0 12.0 0.00 0.02 0.02 86 1007.6
20190116232242 43 304 6.0 12.0 0.00 0.02 0.02 86 1007.5
20190116231341 43 302 6.0 12.0 0.00 0.02 0.02 86 1007.4
20190116230442 43 298 6.0 17.0 0.00 0.02 0.02 86 1007.5
20190116225542 43 297 5.0 11.0 0.00 0.02 0.02 86 1007.4
20190116224641 43 294 6.0 14.0 0.00 0.02 0.02 86 1007.3
20190116223741 43 293 7.0 16.0 0.00 0.02 0.02 86 1007.1
20190116222842 43 291 8.0 15.0 0.00 0.02 0.02 86 1007.1
20190116221941 43 288 8.0 16.0 0.00 0.02 0.02 86 1007.0
20190116221042 43 294 6.0 12.0 0.00 0.02 0.02 86 1007.0
20190116220141 43 293 6.0 12.0 0.00 0.02 0.02 86 1007.1
20190116215242 43 301 6.0 14.0 0.00 0.02 0.02 86 1007.0
20190116214341 43 298 7.0 18.0 0.00 0.02 0.02 86 1007.0
20190116213441 43 299 7.0 15.0 0.00 0.02 0.02 86 1007.0
20190116212541 43 301 6.0 17.0 0.00 0.02 0.02 86 1006.9
20190116211642 43 304 7.0 16.0 0.00 0.02 0.02 86 1006.7
20190116210741 43 308 6.0 14.0 0.00 0.02 0.02 86 1006.6
20190116205842 43 314 4.0 10.0 0.00 0.02 0.02 86 1006.5
20190116204941 43 317 4.0 13.0 0.00 0.02 0.02 86 1006.4
20190116204042 43 310 3.0 10.0 0.00 0.02 0.02 86 1006.3
20190116203141 43 309 4.0 10.0 0.00 0.02 0.02 86 1006.2
20190116202242 43 309 4.0 12.0 0.00 0.02 0.02 86 1006.2
20190116201341 43 306 5.0 14.0 0.00 0.02 0.02 86 1005.9
20190116200441 43 316 5.0 14.0 0.00 0.02 0.02 86 1005.8
20190116195541 43 314 5.0 12.0 0.00 0.02 0.02 86 1005.7
20190116194642 43 300 4.0 10.0 0.00 0.02 0.02 86 1005.6
20190116193741 43 298 5.0 16.0 0.00 0.02 0.02 86 1005.4
20190116192841 43 292 5.0 13.0 0.00 0.02 0.02 86 1005.3
20190116191941 43 309 4.0 14.0 0.00 0.02 0.02 86 1005.2
20190116191042 43 314 4.0 12.0 0.00 0.02 0.02 86 1004.9
20190116190141 43 307 4.0 10.0 0.00 0.02 0.02 86 1004.7
20190116185241 43 300 5.0 12.0 0.00 0.02 0.02 86 1004.7
20190116184341 43 314 5.0 10.0 0.00 0.02 0.02 86 1004.5
20190116183442 43 319 6.0 15.0 0.00 0.02 0.02 86 1004.4
20190116182541 43 321 7.0 19.0 0.00 0.02 0.02 86 1004.1
20190116181642 43 325 9.0 20.0 0.00 0.02 0.02 86 1004.1
20190116180741 43 327 6.0 20.0 0.00 0.02 0.02 86 1003.8
20190116175841 43 321 5.0 12.0 0.00 0.02 0.02 86 1003.6
20190116174941 43 315 4.0 10.0 0.00 0.02 0.02 86 1003.6
20190116174041 43 309 4.0 10.0 0.00 0.02 0.02 86 1003.4
20190116173141 43 310 5.0 10.0 0.00 0.02 0.02 86 1003.3
20190116172241 43 315 5.0 12.0 0.00 0.02 0.02 86 1002.9
20190116171341 43 314 7.0 14.0 0.00 0.02 0.02 86 1002.6
20190116170441 43 308 7.0 18.0 0.00 0.02 0.02 86 1002.6
20190116165541 43 310 5.0 14.0 0.01 0.02 0.02 86 1002.6
20190116164641 43 309 6.0 16.0 0.01 0.02 0.02 86 1002.3
20190116163741 43 306 5.0 17.0 0.01 0.02 0.02 86 1002.1
20190116162841 43 308 6.0 17.0 0.01 0.02 0.02 86 1001.9
20190116161941 44 300 6.0 20.0 0.01 0.02 0.02 86 1001.8
20190116161041 44 296 7.0 21.0 0.01 0.02 0.02 86 1001.7
20190116160141 44 295 5.0 11.0 0.01 0.02 0.02 86 1001.6
20190116155241 45 293 6.0 15.0 0.00 0.01 0.01 85 1001.7
20190116154341 45 283 6.0 18.0 0.00 0.01 0.01 83 1001.5
20190116153441 46 281 8.0 17.0 0.00 0.01 0.01 81 1001.4
20190116152541 46 280 5.0 13.0 0.00 0.01 0.01 80 1001.4
20190116151641 46 281 6.0 14.0 0.00 0.01 0.01 80 1001.3
20190116150741 46 287 7.0 17.0 0.00 0.01 0.01 79 1001.3
20190116145841 47 289 8.0 18.0 0.00 0.01 0.01 79 1001.4
20190116144941 47 278 10.0 23.0 0.00 0.01 0.01 79 1001.3
20190116144041 47 270 11.0 25.0 0.00 0.01 0.01 79 1001.2
20190116143142 47 261 9.0 20.0 0.00 0.01 0.01 81 1001.3
20190116142241 47 262 10.0 20.0 0.00 0.01 0.01 82 1001.3
20190116141341 47 257 9.0 20.0 0.00 0.01 0.01 82 1001.3
20190116140441 47 268 7.0 15.0 0.00 0.01 0.01 82 1001.5
20190116135541 47 276 9.0 19.0 0.00 0.01 0.01 82 1001.5
20190116134641 47 277 8.0 17.0 0.00 0.01 0.01 83 1001.6
20190116133741 47 262 9.0 18.0 0.00 0.01 0.01 84 1001.8
20190116132841 47 254 10.0 21.0 0.00 0.01 0.01 83 1001.9
20190116131941 47 251 12.0 23.0 0.00 0.01 0.01 84 1002.0
20190116131041 47 241 8.0 15.0 0.00 0.01 0.01 86 1002.1
20190116130141 47 243 7.0 14.0 0.00 0.01 0.01 87 1002.3
20190116125241 47 240 8.0 15.0 0.00 0.01 0.01 88 1002.6
20190116124341 47 236 7.0 15.0 0.00 0.01 0.01 88 1002.7
20190116123441 47 241 7.0 14.0 0.00 0.01 0.01 89 1002.9
20190116122541 46 237 5.0 14.0 0.00 0.01 0.01 90 1003.0
20190116121641 46 263 5.0 12.0 0.01 0.01 0.01 91 1003.2
20190116120741 45 258 6.0 14.0 0.01 0.01 0.01 92 1003.4
20190116115841 45 245 4.0 14.0 0.01 0.01 0.01 93 1003.5
20190116114941 45 231 4.0 9.0 0.01 0.01 0.01 94 1003.6
20190116114041 44 238 5.0 9.0 0.01 0.01 0.01 95 1003.7
20190116113141 44 239 6.0 12.0 0.01 0.01 0.01 95 1003.9
20190116112241 43 239 4.0 9.0 0.01 0.01 0.01 96 1004.0
20190116111341 43 242 4.0 9.0 0.00 0.00 0.00 96 1004.1
20190116110441 43 251 5.0 9.0 0.00 0.00 0.00 96 1004.2
20190116105541 42 255 5.0 11.0 0.00 0.00 0.00 96 1004.3
20190116104641 42 254 5.0 9.0 0.00 0.00 0.00 96 1004.3
20190116103741 42 245 6.0 13.0 0.00 0.00 0.00 96 1004.2
20190116102841 42 245 6.0 12.0 0.00 0.00 0.00 97 1004.4
20190116101941 41 249 7.0 16.0 0.00 0.00 0.00 96 1004.4
20190116101041 41 246 5.0 12.0 0.00 0.00 0.00 97 1004.5
20190116100141 41 246 6.0 12.0 0.00 0.00 0.00 96 1004.4
20190116095241 41 251 6.0 12.0 0.00 0.00 0.00 96 1004.5
20190116094341 40 254 5.0 10.0 0.00 0.00 0.00 96 1004.6
20190116093441 40 255 5.0 10.0 0.00 0.00 0.00 96 1004.6
20190116092541 48 255 5.0 9.0 0.00 0.00 0.00 93 1004.6
20190116091641 48 256 6.0 10.0 0.00 0.00 0.00 93 1004.5
20190116090741 48 251 5.0 9.0 0.00 0.00 0.00 93 1004.5
20190116085841 48 252 5.0 8.0 0.00 0.00 0.00 93 1004.5
20190116084941 48 255 5.0 10.0 0.00 0.00 0.00 93 1004.6